Year,Month,Day,Hour,Minute,Value (Times are PST for windgust in km/hr)
2010,04,02,00,00,0.00
2010,04,02,00,01,0.00
2010,04,02,00,02,1.60
2010,04,02,00,03,4.80
2010,04,02,00,04,6.40
2010,04,02,00,05,4.80
2010,04,02,00,06,4.80
2010,04,02,00,07,3.20
2010,04,02,00,08,0.00
2010,04,02,00,09,0.00
2010,04,02,00,10,0.00
2010,04,02,00,11,4.80
2010,04,02,00,12,3.20
2010,04,02,00,13,3.20
2010,04,02,00,14,3.20
2010,04,02,00,15,0.00
2010,04,02,00,16,1.60
2010,04,02,00,17,0.00
2010,04,02,00,18,3.20
2010,04,02,00,19,3.20
2010,04,02,00,20,3.20
2010,04,02,00,21,3.20
2010,04,02,00,22,4.80
2010,04,02,00,23,4.80
2010,04,02,00,24,3.20
2010,04,02,00,25,3.20
2010,04,02,00,26,0.00
2010,04,02,00,27,4.80
2010,04,02,00,28,3.20
2010,04,02,00,29,0.00
2010,04,02,00,30,3.20
2010,04,02,00,31,3.20
2010,04,02,00,32,1.60
2010,04,02,00,33,0.00
2010,04,02,00,34,0.00
2010,04,02,00,35,3.20
2010,04,02,00,36,4.80
2010,04,02,00,37,0.00
2010,04,02,00,38,0.00
2010,04,02,00,39,0.00
2010,04,02,00,40,4.80
2010,04,02,00,41,4.80
2010,04,02,00,42,4.80
2010,04,02,00,43,1.60
2010,04,02,00,44,0.00
2010,04,02,00,45,0.00
2010,04,02,00,46,0.00
2010,04,02,00,47,3.20
2010,04,02,00,48,0.00
2010,04,02,00,49,1.60
2010,04,02,00,50,4.80
2010,04,02,00,51,3.20
2010,04,02,00,52,3.20
2010,04,02,00,53,0.00
2010,04,02,00,54,4.80
2010,04,02,00,55,1.60
2010,04,02,00,56,0.00
2010,04,02,00,57,0.00
2010,04,02,00,58,0.00
2010,04,02,00,59,0.00
2010,04,02,01,00,0.00
2010,04,02,01,01,0.00
2010,04,02,01,02,1.60
2010,04,02,01,03,1.60
2010,04,02,01,04,8.10
2010,04,02,01,05,4.80
2010,04,02,01,06,9.60
2010,04,02,01,07,14.50
2010,04,02,01,08,11.30
2010,04,02,01,09,3.20
2010,04,02,01,10,3.20
2010,04,02,01,11,0.00
2010,04,02,01,12,4.80
2010,04,02,01,13,1.60
2010,04,02,01,14,3.20
2010,04,02,01,15,1.60
2010,04,02,01,16,6.40
2010,04,02,01,17,6.40
2010,04,02,01,18,11.30
2010,04,02,01,19,8.10
2010,04,02,01,20,6.40
2010,04,02,01,21,8.10
2010,04,02,01,22,8.10
2010,04,02,01,23,11.30
2010,04,02,01,24,8.10
2010,04,02,01,25,11.30
2010,04,02,01,26,8.10
2010,04,02,01,27,9.60
2010,04,02,01,28,14.50
2010,04,02,01,29,20.90
2010,04,02,01,30,8.10
2010,04,02,01,31,14.50
2010,04,02,01,32,6.40
2010,04,02,01,33,11.30
2010,04,02,01,34,16.10
2010,04,02,01,35,16.10
2010,04,02,01,36,6.40
2010,04,02,01,37,6.40
2010,04,02,01,38,3.20
2010,04,02,01,39,6.40
2010,04,02,01,40,11.30
2010,04,02,01,41,8.10
2010,04,02,01,42,16.10
2010,04,02,01,43,9.60
2010,04,02,01,44,6.40
2010,04,02,01,45,8.10
2010,04,02,01,46,14.50
2010,04,02,01,47,11.30
2010,04,02,01,48,4.80
2010,04,02,01,49,4.80
2010,04,02,01,50,17.70
2010,04,02,01,51,16.10
2010,04,02,01,52,14.50
2010,04,02,01,53,20.90
2010,04,02,01,54,16.10
2010,04,02,01,55,19.30
2010,04,02,01,56,17.70
2010,04,02,01,57,11.30
2010,04,02,01,58,9.60
2010,04,02,01,59,6.40
2010,04,02,02,00,4.80
2010,04,02,02,01,9.60
2010,04,02,02,02,11.30
2010,04,02,02,03,14.50
2010,04,02,02,04,9.60
2010,04,02,02,05,9.60
2010,04,02,02,06,20.90
2010,04,02,02,07,6.40
2010,04,02,02,08,16.10
2010,04,02,02,09,4.80
2010,04,02,02,10,6.40
2010,04,02,02,11,14.50
2010,04,02,02,12,6.40
2010,04,02,02,13,3.20
2010,04,02,02,14,19.30
2010,04,02,02,15,22.50
2010,04,02,02,16,9.60
2010,04,02,02,17,19.30
2010,04,02,02,18,19.30
2010,04,02,02,19,14.50
2010,04,02,02,20,8.10
2010,04,02,02,21,11.30
2010,04,02,02,22,12.90
2010,04,02,02,23,16.10
2010,04,02,02,24,9.60
2010,04,02,02,25,3.20
2010,04,02,02,26,6.40
2010,04,02,02,27,16.10
2010,04,02,02,28,4.80
2010,04,02,02,29,9.60
2010,04,02,02,30,9.60
2010,04,02,02,31,11.30
2010,04,02,02,32,9.60
2010,04,02,02,33,6.40
2010,04,02,02,34,3.20
2010,04,02,02,35,0.00
2010,04,02,02,36,11.30
2010,04,02,02,37,9.60
2010,04,02,02,38,4.80
2010,04,02,02,39,3.20
2010,04,02,02,40,9.60
2010,04,02,02,41,16.10
2010,04,02,02,42,14.50
2010,04,02,02,43,8.10
2010,04,02,02,44,8.10
2010,04,02,02,45,8.10
2010,04,02,02,46,9.60
2010,04,02,02,47,3.20
2010,04,02,02,48,4.80
2010,04,02,02,49,8.10
2010,04,02,02,50,6.40
2010,04,02,02,51,11.30
2010,04,02,02,52,14.50
2010,04,02,02,53,14.50
2010,04,02,02,54,8.10
2010,04,02,02,55,17.70
2010,04,02,02,56,11.30
2010,04,02,02,57,14.50
2010,04,02,02,58,11.30
2010,04,02,02,59,16.10
2010,04,02,03,00,6.40
2010,04,02,03,01,6.40
2010,04,02,03,02,9.60
2010,04,02,03,03,0.00
2010,04,02,03,04,3.20
2010,04,02,03,05,6.40
2010,04,02,03,06,6.40
2010,04,02,03,07,4.80
2010,04,02,03,08,6.40
2010,04,02,03,09,11.30
2010,04,02,03,10,8.10
2010,04,02,03,11,11.30
2010,04,02,03,12,6.40
2010,04,02,03,13,3.20
2010,04,02,03,14,1.60
2010,04,02,03,15,1.60
2010,04,02,03,16,1.60
2010,04,02,03,17,1.60
2010,04,02,03,18,4.80
2010,04,02,03,19,3.20
2010,04,02,03,20,0.00
2010,04,02,03,21,0.00
2010,04,02,03,22,3.20
2010,04,02,03,23,3.20
2010,04,02,03,24,4.80
2010,04,02,03,25,0.00
2010,04,02,03,26,0.00
2010,04,02,03,27,3.20
2010,04,02,03,28,3.20
2010,04,02,03,29,1.60
2010,04,02,03,30,0.00
2010,04,02,03,31,1.60
2010,04,02,03,32,0.00
2010,04,02,03,33,1.60
2010,04,02,03,34,1.60
2010,04,02,03,35,4.80
2010,04,02,03,36,4.80
2010,04,02,03,37,4.80
2010,04,02,03,38,4.80
2010,04,02,03,39,6.40
2010,04,02,03,40,4.80
2010,04,02,03,41,3.20
2010,04,02,03,42,6.40
2010,04,02,03,43,9.60
2010,04,02,03,44,6.40
2010,04,02,03,45,6.40
2010,04,02,03,46,4.80
2010,04,02,03,47,6.40
2010,04,02,03,48,8.10
2010,04,02,03,49,9.60
2010,04,02,03,50,11.30
2010,04,02,03,51,8.10
2010,04,02,03,52,11.30
2010,04,02,03,53,8.10
2010,04,02,03,54,4.80
2010,04,02,03,55,8.10
2010,04,02,03,56,6.40
2010,04,02,03,57,6.40
2010,04,02,03,58,4.80
2010,04,02,03,59,4.80
2010,04,02,04,00,6.40
2010,04,02,04,01,6.40
2010,04,02,04,02,8.10
2010,04,02,04,03,9.60
2010,04,02,04,04,9.60
2010,04,02,04,05,9.60
2010,04,02,04,06,11.30
2010,04,02,04,07,11.30
2010,04,02,04,08,14.50
2010,04,02,04,09,9.60
2010,04,02,04,10,8.10
2010,04,02,04,11,9.60
2010,04,02,04,12,9.60
2010,04,02,04,13,9.60
2010,04,02,04,14,11.30
2010,04,02,04,15,11.30
2010,04,02,04,16,11.30
2010,04,02,04,17,9.60
2010,04,02,04,18,9.60
2010,04,02,04,19,12.90
2010,04,02,04,20,16.10
2010,04,02,04,21,17.70
2010,04,02,04,22,17.70
2010,04,02,04,23,16.10
2010,04,02,04,24,16.10
2010,04,02,04,25,17.70
2010,04,02,04,26,14.50
2010,04,02,04,27,14.50
2010,04,02,04,28,14.50
2010,04,02,04,29,12.90
2010,04,02,04,30,11.30
2010,04,02,04,31,11.30
2010,04,02,04,32,9.60
2010,04,02,04,33,14.50
2010,04,02,04,34,14.50
2010,04,02,04,35,17.70
2010,04,02,04,36,16.10
2010,04,02,04,37,12.90
2010,04,02,04,38,16.10
2010,04,02,04,39,14.50
2010,04,02,04,40,14.50
2010,04,02,04,41,14.50
2010,04,02,04,42,14.50
2010,04,02,04,43,9.60
2010,04,02,04,44,9.60
2010,04,02,04,45,8.10
2010,04,02,04,46,8.10
2010,04,02,04,47,4.80
2010,04,02,04,48,6.40
2010,04,02,04,49,8.10
2010,04,02,04,50,11.30
2010,04,02,04,51,14.50
2010,04,02,04,52,16.10
2010,04,02,04,53,6.40
2010,04,02,04,54,3.20
2010,04,02,04,55,4.80
2010,04,02,04,56,1.60
2010,04,02,04,57,0.00
2010,04,02,04,58,0.00
2010,04,02,04,59,4.80
2010,04,02,05,00,6.40
2010,04,02,05,01,1.60
2010,04,02,05,02,0.00
2010,04,02,05,03,0.00
2010,04,02,05,04,0.00
2010,04,02,05,05,6.40
2010,04,02,05,06,4.80
2010,04,02,05,07,11.30
2010,04,02,05,08,16.10
2010,04,02,05,09,11.30
2010,04,02,05,10,4.80
2010,04,02,05,11,24.20
2010,04,02,05,12,16.10
2010,04,02,05,13,24.20
2010,04,02,05,14,14.50
2010,04,02,05,15,14.50
2010,04,02,05,16,11.30
2010,04,02,05,17,9.60
2010,04,02,05,18,9.60
2010,04,02,05,19,11.30
2010,04,02,05,20,6.40
2010,04,02,05,21,9.60
2010,04,02,05,22,19.30
2010,04,02,05,23,27.40
2010,04,02,05,24,19.30
2010,04,02,05,25,14.50
2010,04,02,05,26,22.50
2010,04,02,05,27,19.30
2010,04,02,05,28,17.70
2010,04,02,05,29,27.40
2010,04,02,05,30,14.50
2010,04,02,05,31,14.50
2010,04,02,05,32,9.60
2010,04,02,05,33,24.20
2010,04,02,05,34,19.30
2010,04,02,05,35,17.70
2010,04,02,05,36,20.90
2010,04,02,05,37,32.20
2010,04,02,05,38,27.40
2010,04,02,05,39,17.70
2010,04,02,05,40,16.10
2010,04,02,05,41,19.30
2010,04,02,05,42,20.90
2010,04,02,05,43,19.30
2010,04,02,05,44,20.90
2010,04,02,05,45,25.70
2010,04,02,05,46,17.70
2010,04,02,05,47,16.10
2010,04,02,05,48,14.50
2010,04,02,05,49,8.10
2010,04,02,05,50,17.70
2010,04,02,05,51,19.30
2010,04,02,05,52,22.50
2010,04,02,05,53,30.60
2010,04,02,05,54,24.20
2010,04,02,05,55,8.10
2010,04,02,05,56,9.60
2010,04,02,05,57,17.70
2010,04,02,05,58,16.10
2010,04,02,05,59,17.70
2010,04,02,06,00,32.20
2010,04,02,06,01,17.70
2010,04,02,06,02,24.20
2010,04,02,06,03,9.60
2010,04,02,06,04,11.30
2010,04,02,06,05,12.90
2010,04,02,06,06,24.20
2010,04,02,06,07,25.70
2010,04,02,06,08,19.30
2010,04,02,06,09,35.40
2010,04,02,06,10,41.80
2010,04,02,06,11,30.60
2010,04,02,06,12,27.40
2010,04,02,06,13,20.90
2010,04,02,06,14,53.10
2010,04,02,06,15,45.10
2010,04,02,06,16,25.70
2010,04,02,06,17,29.00
2010,04,02,06,18,17.70
2010,04,02,06,19,17.70
2010,04,02,06,20,30.60
2010,04,02,06,21,25.70
2010,04,02,06,22,16.10
2010,04,02,06,23,30.60
2010,04,02,06,24,11.30
2010,04,02,06,25,25.70
2010,04,02,06,26,41.80
2010,04,02,06,27,38.60
2010,04,02,06,28,35.40
2010,04,02,06,29,25.70
2010,04,02,06,30,27.40
2010,04,02,06,31,32.20
2010,04,02,06,32,24.20
2010,04,02,06,33,37.00
2010,04,02,06,34,41.80
2010,04,02,06,35,45.10
2010,04,02,06,36,38.60
2010,04,02,06,37,22.50
2010,04,02,06,38,30.60
2010,04,02,06,39,30.60
2010,04,02,06,40,40.20
2010,04,02,06,41,37.00
2010,04,02,06,42,54.70
2010,04,02,06,43,24.20
2010,04,02,06,44,41.80
2010,04,02,06,45,35.40
2010,04,02,06,46,29.00
2010,04,02,06,47,35.40
2010,04,02,06,48,35.40
2010,04,02,06,49,40.20
2010,04,02,06,50,40.20
2010,04,02,06,51,22.50
2010,04,02,06,52,40.20
2010,04,02,06,53,20.90
2010,04,02,06,54,51.50
2010,04,02,06,55,33.80
2010,04,02,06,56,19.30
2010,04,02,06,57,38.60
2010,04,02,06,58,30.60
2010,04,02,06,59,37.00
2010,04,02,07,00,32.20
2010,04,02,07,01,29.00
2010,04,02,07,02,32.20
2010,04,02,07,03,43.50
2010,04,02,07,04,35.40
2010,04,02,07,05,24.20
2010,04,02,07,06,64.40
2010,04,02,07,07,29.00
2010,04,02,07,08,38.60
2010,04,02,07,09,29.00
2010,04,02,07,10,33.80
2010,04,02,07,11,45.10
2010,04,02,07,12,37.00
2010,04,02,07,13,24.20
2010,04,02,07,14,46.70
2010,04,02,07,15,37.00
2010,04,02,07,16,29.00
2010,04,02,07,17,37.00
2010,04,02,07,18,45.10
2010,04,02,07,19,29.00
2010,04,02,07,20,19.30
2010,04,02,07,21,27.40
2010,04,02,07,22,30.60
2010,04,02,07,23,30.60
2010,04,02,07,24,41.80
2010,04,02,07,25,30.60
2010,04,02,07,26,40.20
2010,04,02,07,27,32.20
2010,04,02,07,28,25.70
2010,04,02,07,29,32.20
2010,04,02,07,30,30.60
2010,04,02,07,31,27.40
2010,04,02,07,32,17.70
2010,04,02,07,33,25.70
2010,04,02,07,34,19.30
2010,04,02,07,35,41.80
2010,04,02,07,36,27.40
2010,04,02,07,37,29.00
2010,04,02,07,38,33.80
2010,04,02,07,39,35.40
2010,04,02,07,40,41.80
2010,04,02,07,41,41.80
2010,04,02,07,42,27.40
2010,04,02,07,43,25.70
2010,04,02,07,44,19.30
2010,04,02,07,45,29.00
2010,04,02,07,46,37.00
2010,04,02,07,47,30.60
2010,04,02,07,48,38.60
2010,04,02,07,49,30.60
2010,04,02,07,50,24.20
2010,04,02,07,51,22.50
2010,04,02,07,52,38.60
2010,04,02,07,53,27.40
2010,04,02,07,54,20.90
2010,04,02,07,55,24.20
2010,04,02,07,56,37.00
2010,04,02,07,57,32.20
2010,04,02,07,58,20.90
2010,04,02,07,59,69.20
2010,04,02,08,00,45.10
2010,04,02,08,01,46.70
2010,04,02,08,02,20.90
2010,04,02,08,03,35.40
2010,04,02,08,04,46.70
2010,04,02,08,05,32.20
2010,04,02,08,06,45.10
2010,04,02,08,07,32.20
2010,04,02,08,08,43.50
2010,04,02,08,09,33.80
2010,04,02,08,10,17.70
2010,04,02,08,11,17.70
2010,04,02,08,12,27.40
2010,04,02,08,13,30.60
2010,04,02,08,14,17.70
2010,04,02,08,15,24.20
2010,04,02,08,16,33.80
2010,04,02,08,17,30.60
2010,04,02,08,18,25.70
2010,04,02,08,19,32.20
2010,04,02,08,20,22.50
2010,04,02,08,21,27.40
2010,04,02,08,22,49.90
2010,04,02,08,23,41.80
2010,04,02,08,24,33.80
2010,04,02,08,25,46.70
2010,04,02,08,26,38.60
2010,04,02,08,27,40.20
2010,04,02,08,28,38.60
2010,04,02,08,29,19.30
2010,04,02,08,30,27.40
2010,04,02,08,31,17.70
2010,04,02,08,32,20.90
2010,04,02,08,33,24.20
2010,04,02,08,34,33.80
2010,04,02,08,35,24.20
2010,04,02,08,36,24.20
2010,04,02,08,37,22.50
2010,04,02,08,38,16.10
2010,04,02,08,39,37.00
2010,04,02,08,40,24.20
2010,04,02,08,41,33.80
2010,04,02,08,42,30.60
2010,04,02,08,43,32.20
2010,04,02,08,44,30.60
2010,04,02,08,45,27.40
2010,04,02,08,46,20.90
2010,04,02,08,47,16.10
2010,04,02,08,48,24.20
2010,04,02,08,49,30.60
2010,04,02,08,50,8.10
2010,04,02,08,51,6.40
2010,04,02,08,52,14.50
2010,04,02,08,53,29.00
2010,04,02,08,54,30.60
2010,04,02,08,55,25.70
2010,04,02,08,56,25.70
2010,04,02,08,57,27.40
2010,04,02,08,58,35.40
2010,04,02,08,59,27.40
2010,04,02,09,00,22.50
2010,04,02,09,01,20.90
2010,04,02,09,02,20.90
2010,04,02,09,03,19.30
2010,04,02,09,04,32.20
2010,04,02,09,05,32.20
2010,04,02,09,06,29.00
2010,04,02,09,07,9.60
2010,04,02,09,08,9.60
2010,04,02,09,09,4.80
2010,04,02,09,10,27.40
2010,04,02,09,11,24.20
2010,04,02,09,12,22.50
2010,04,02,09,13,16.10
2010,04,02,09,14,9.60
2010,04,02,09,15,22.50
2010,04,02,09,16,17.70
2010,04,02,09,17,29.00
2010,04,02,09,18,14.50
2010,04,02,09,19,32.20
2010,04,02,09,20,27.40
2010,04,02,09,21,30.60
2010,04,02,09,22,37.00
2010,04,02,09,23,29.00
2010,04,02,09,24,27.40
2010,04,02,09,25,9.60
2010,04,02,09,26,27.40
2010,04,02,09,27,20.90
2010,04,02,09,28,33.80
2010,04,02,09,29,17.70
2010,04,02,09,30,35.40
2010,04,02,09,31,20.90
2010,04,02,09,32,29.00
2010,04,02,09,33,32.20
2010,04,02,09,34,37.00
2010,04,02,09,35,22.50
2010,04,02,09,36,30.60
2010,04,02,09,37,25.70
2010,04,02,09,38,24.20
2010,04,02,09,39,48.30
2010,04,02,09,40,37.00
2010,04,02,09,41,11.30
2010,04,02,09,42,27.40
2010,04,02,09,43,16.10
2010,04,02,09,44,9.60
2010,04,02,09,45,17.70
2010,04,02,09,46,32.20
2010,04,02,09,47,17.70
2010,04,02,09,48,20.90
2010,04,02,09,49,19.30
2010,04,02,09,50,27.40
2010,04,02,09,51,16.10
2010,04,02,09,52,19.30
2010,04,02,09,53,29.00
2010,04,02,09,54,30.60
2010,04,02,09,55,30.60
2010,04,02,09,56,19.30
2010,04,02,09,57,9.60
2010,04,02,09,58,16.10
2010,04,02,09,59,9.60
2010,04,02,10,00,35.40
2010,04,02,10,01,9.60
2010,04,02,10,02,9.60
2010,04,02,10,03,16.10
2010,04,02,10,04,24.20
2010,04,02,10,05,25.70
2010,04,02,10,06,29.00
2010,04,02,10,07,17.70
2010,04,02,10,08,25.70
2010,04,02,10,09,25.70
2010,04,02,10,10,14.50
2010,04,02,10,11,30.60
2010,04,02,10,12,20.90
2010,04,02,10,13,16.10
2010,04,02,10,14,16.10
2010,04,02,10,15,11.30
2010,04,02,10,16,30.60
2010,04,02,10,17,27.40
2010,04,02,10,18,38.60
2010,04,02,10,19,27.40
2010,04,02,10,20,27.40
2010,04,02,10,21,27.40
2010,04,02,10,22,35.40
2010,04,02,10,23,38.60
2010,04,02,10,24,19.30
2010,04,02,10,25,32.20
2010,04,02,10,26,35.40
2010,04,02,10,27,41.80
2010,04,02,10,28,41.80
2010,04,02,10,29,43.50
2010,04,02,10,30,22.50
2010,04,02,10,31,49.90
2010,04,02,10,32,48.30
2010,04,02,10,33,33.80
2010,04,02,10,34,29.00
2010,04,02,10,35,37.00
2010,04,02,10,36,17.70
2010,04,02,10,37,17.70
2010,04,02,10,38,38.60
2010,04,02,10,39,32.20
2010,04,02,10,40,16.10
2010,04,02,10,41,22.50
2010,04,02,10,42,22.50
2010,04,02,10,43,19.30
2010,04,02,10,44,9.60
2010,04,02,10,45,11.30
2010,04,02,10,46,30.60
2010,04,02,10,47,45.10
2010,04,02,10,48,43.50
2010,04,02,10,49,20.90
2010,04,02,10,50,45.10
2010,04,02,10,51,49.90
2010,04,02,10,52,46.70
2010,04,02,10,53,27.40
2010,04,02,10,54,29.00
2010,04,02,10,55,37.00
2010,04,02,10,56,25.70
2010,04,02,10,57,29.00
2010,04,02,10,58,37.00
2010,04,02,10,59,41.80
2010,04,02,11,00,20.90
2010,04,02,11,01,24.20
2010,04,02,11,02,33.80
2010,04,02,11,03,20.90
2010,04,02,11,04,27.40
2010,04,02,11,05,24.20
2010,04,02,11,06,33.80
2010,04,02,11,07,54.70
2010,04,02,11,08,33.80
2010,04,02,11,09,20.90
2010,04,02,11,10,14.50
2010,04,02,11,11,30.60
2010,04,02,11,12,41.80
2010,04,02,11,13,22.50
2010,04,02,11,14,22.50
2010,04,02,11,15,32.20
2010,04,02,11,16,20.90
2010,04,02,11,17,22.50
2010,04,02,11,18,29.00
2010,04,02,11,19,30.60
2010,04,02,11,20,32.20
2010,04,02,11,21,37.00
2010,04,02,11,22,41.80
2010,04,02,11,23,45.10
2010,04,02,11,24,37.00
2010,04,02,11,25,24.20
2010,04,02,11,26,40.20
2010,04,02,11,27,30.60
2010,04,02,11,28,37.00
2010,04,02,11,29,29.00
2010,04,02,11,30,33.80
2010,04,02,11,31,27.40
2010,04,02,11,32,29.00
2010,04,02,11,33,14.50
2010,04,02,11,34,33.80
2010,04,02,11,35,22.50
2010,04,02,11,36,19.30
2010,04,02,11,37,20.90
2010,04,02,11,38,35.40
2010,04,02,11,39,17.70
2010,04,02,11,40,30.60
2010,04,02,11,41,41.80
2010,04,02,11,42,20.90
2010,04,02,11,43,22.50
2010,04,02,11,44,16.10
2010,04,02,11,45,40.20
2010,04,02,11,46,37.00
2010,04,02,11,47,17.70
2010,04,02,11,48,17.70
2010,04,02,11,49,17.70
2010,04,02,11,50,16.10
2010,04,02,11,51,27.40
2010,04,02,11,52,19.30
2010,04,02,11,53,33.80
2010,04,02,11,54,38.60
2010,04,02,11,55,33.80
2010,04,02,11,56,43.50
2010,04,02,11,57,33.80
2010,04,02,11,58,25.70
2010,04,02,11,59,30.60
2010,04,02,12,00,27.40
2010,04,02,12,01,11.30
2010,04,02,12,02,17.70
2010,04,02,12,03,24.20
2010,04,02,12,04,24.20
2010,04,02,12,05,25.70
2010,04,02,12,06,30.60
2010,04,02,12,07,29.00
2010,04,02,12,08,24.20
2010,04,02,12,09,20.90
2010,04,02,12,10,25.70
2010,04,02,12,11,37.00
2010,04,02,12,12,27.40
2010,04,02,12,13,32.20
2010,04,02,12,14,45.10
2010,04,02,12,15,19.30
2010,04,02,12,16,22.50
2010,04,02,12,17,22.50
2010,04,02,12,18,24.20
2010,04,02,12,19,37.00
2010,04,02,12,20,30.60
2010,04,02,12,21,24.20
2010,04,02,12,22,40.20
2010,04,02,12,23,14.50
2010,04,02,12,24,30.60
2010,04,02,12,25,27.40
2010,04,02,12,26,17.70
2010,04,02,12,27,30.60
2010,04,02,12,28,33.80
2010,04,02,12,29,20.90
2010,04,02,12,30,20.90
2010,04,02,12,31,17.70
2010,04,02,12,32,37.00
2010,04,02,12,33,30.60
2010,04,02,12,34,22.50
2010,04,02,12,35,27.40
2010,04,02,12,36,27.40
2010,04,02,12,37,29.00
2010,04,02,12,38,32.20
2010,04,02,12,39,24.20
2010,04,02,12,40,19.30
2010,04,02,12,41,30.60
2010,04,02,12,42,20.90
2010,04,02,12,43,27.40
2010,04,02,12,44,19.30
2010,04,02,12,45,29.00
2010,04,02,12,46,30.60
2010,04,02,12,47,17.70
2010,04,02,12,48,17.70
2010,04,02,12,49,19.30
2010,04,02,12,50,16.10
2010,04,02,12,51,17.70
2010,04,02,12,52,19.30
2010,04,02,12,53,27.40
2010,04,02,12,54,40.20
2010,04,02,12,55,25.70
2010,04,02,12,56,17.70
2010,04,02,12,57,32.20
2010,04,02,12,58,30.60
2010,04,02,12,59,38.60
2010,04,02,13,00,40.20
2010,04,02,13,01,27.40
2010,04,02,13,02,38.60
2010,04,02,13,03,20.90
2010,04,02,13,04,24.20
2010,04,02,13,05,29.00
2010,04,02,13,06,22.50
2010,04,02,13,07,29.00
2010,04,02,13,08,20.90
2010,04,02,13,09,30.60
2010,04,02,13,10,29.00
2010,04,02,13,11,25.70
2010,04,02,13,12,27.40
2010,04,02,13,13,24.20
2010,04,02,13,14,22.50
2010,04,02,13,15,30.60
2010,04,02,13,16,33.80
2010,04,02,13,17,20.90
2010,04,02,13,18,27.40
2010,04,02,13,19,22.50
2010,04,02,13,20,27.40
2010,04,02,13,21,22.50
2010,04,02,13,22,30.60
2010,04,02,13,23,27.40
2010,04,02,13,24,27.40
2010,04,02,13,25,27.40
2010,04,02,13,26,35.40
2010,04,02,13,27,22.50
2010,04,02,13,28,19.30
2010,04,02,13,29,19.30
2010,04,02,13,30,24.20
2010,04,02,13,31,19.30
2010,04,02,13,32,20.90
2010,04,02,13,33,16.10
2010,04,02,13,34,24.20
2010,04,02,13,35,17.70
2010,04,02,13,36,20.90
2010,04,02,13,37,24.20
2010,04,02,13,38,32.20
2010,04,02,13,39,22.50
2010,04,02,13,40,25.70
2010,04,02,13,41,32.20
2010,04,02,13,42,29.00
2010,04,02,13,43,22.50
2010,04,02,13,44,20.90
2010,04,02,13,45,24.20
2010,04,02,13,46,22.50
2010,04,02,13,47,29.00
2010,04,02,13,48,27.40
2010,04,02,13,49,32.20
2010,04,02,13,50,30.60
2010,04,02,13,51,20.90
2010,04,02,13,52,24.20
2010,04,02,13,53,19.30
2010,04,02,13,54,33.80
2010,04,02,13,55,22.50
2010,04,02,13,56,29.00
2010,04,02,13,57,32.20
2010,04,02,13,58,43.50
2010,04,02,13,59,30.60
2010,04,02,14,00,25.70
2010,04,02,14,01,25.70
2010,04,02,14,02,22.50
2010,04,02,14,03,27.40
2010,04,02,14,04,17.70
2010,04,02,14,05,19.30
2010,04,02,14,06,19.30
2010,04,02,14,07,24.20
2010,04,02,14,08,27.40
2010,04,02,14,09,19.30
2010,04,02,14,10,29.00
2010,04,02,14,11,27.40
2010,04,02,14,12,25.70
2010,04,02,14,13,22.50
2010,04,02,14,14,22.50
2010,04,02,14,15,19.30
2010,04,02,14,16,14.50
2010,04,02,14,17,20.90
2010,04,02,14,18,16.10
2010,04,02,14,19,9.60
2010,04,02,14,20,16.10
2010,04,02,14,21,19.30
2010,04,02,14,22,24.20
2010,04,02,14,23,29.00
2010,04,02,14,24,19.30
2010,04,02,14,25,19.30
2010,04,02,14,26,20.90
2010,04,02,14,27,30.60
2010,04,02,14,28,29.00
2010,04,02,14,29,17.70
2010,04,02,14,30,11.30
2010,04,02,14,31,25.70
2010,04,02,14,32,25.70
2010,04,02,14,33,30.60
2010,04,02,14,34,22.50
2010,04,02,14,35,29.00
2010,04,02,14,36,11.30
2010,04,02,14,37,16.10
2010,04,02,14,38,19.30
2010,04,02,14,39,17.70
2010,04,02,14,40,19.30
2010,04,02,14,41,25.70
2010,04,02,14,42,17.70
2010,04,02,14,43,20.90
2010,04,02,14,44,17.70
2010,04,02,14,45,24.20
2010,04,02,14,46,19.30
2010,04,02,14,47,33.80
2010,04,02,14,48,25.70
2010,04,02,14,49,22.50
2010,04,02,14,50,20.90
2010,04,02,14,51,20.90
2010,04,02,14,52,8.10
2010,04,02,14,53,9.60
2010,04,02,14,54,20.90
2010,04,02,14,55,11.30
2010,04,02,14,56,17.70
2010,04,02,14,57,14.50
2010,04,02,14,58,9.60
2010,04,02,14,59,9.60
2010,04,02,15,00,8.10
2010,04,02,15,01,22.50
2010,04,02,15,02,24.20
2010,04,02,15,03,19.30
2010,04,02,15,04,19.30
2010,04,02,15,05,20.90
2010,04,02,15,06,24.20
2010,04,02,15,07,30.60
2010,04,02,15,08,30.60
2010,04,02,15,09,11.30
2010,04,02,15,10,16.10
2010,04,02,15,11,22.50
2010,04,02,15,12,19.30
2010,04,02,15,13,20.90
2010,04,02,15,14,17.70
2010,04,02,15,15,14.50
2010,04,02,15,16,16.10
2010,04,02,15,17,14.50
2010,04,02,15,18,14.50
2010,04,02,15,19,8.10
2010,04,02,15,20,17.70
2010,04,02,15,21,16.10
2010,04,02,15,22,27.40
2010,04,02,15,23,22.50
2010,04,02,15,24,17.70
2010,04,02,15,25,19.30
2010,04,02,15,26,20.90
2010,04,02,15,27,24.20
2010,04,02,15,28,16.10
2010,04,02,15,29,9.60
2010,04,02,15,30,11.30
2010,04,02,15,31,33.80
2010,04,02,15,32,12.90
2010,04,02,15,33,25.70
2010,04,02,15,34,12.90
2010,04,02,15,35,9.60
2010,04,02,15,36,29.00
2010,04,02,15,37,20.90
2010,04,02,15,38,29.00
2010,04,02,15,39,25.70
2010,04,02,15,40,33.80
2010,04,02,15,41,27.40
2010,04,02,15,42,32.20
2010,04,02,15,43,24.20
2010,04,02,15,44,17.70
2010,04,02,15,45,24.20
2010,04,02,15,46,17.70
2010,04,02,15,47,19.30
2010,04,02,15,48,20.90
2010,04,02,15,49,17.70
2010,04,02,15,50,22.50
2010,04,02,15,51,14.50
2010,04,02,15,52,22.50
2010,04,02,15,53,24.20
2010,04,02,15,54,17.70
2010,04,02,15,55,9.60
2010,04,02,15,56,16.10
2010,04,02,15,57,19.30
2010,04,02,15,58,9.60
2010,04,02,15,59,19.30
2010,04,02,16,00,11.30
2010,04,02,16,01,22.50
2010,04,02,16,02,11.30
2010,04,02,16,03,24.20
2010,04,02,16,04,22.50
2010,04,02,16,05,16.10
2010,04,02,16,06,14.50
2010,04,02,16,07,20.90
2010,04,02,16,08,14.50
2010,04,02,16,09,11.30
2010,04,02,16,10,19.30
2010,04,02,16,11,20.90
2010,04,02,16,12,27.40
2010,04,02,16,13,19.30
2010,04,02,16,14,24.20
2010,04,02,16,15,20.90
2010,04,02,16,16,19.30
2010,04,02,16,17,27.40
2010,04,02,16,18,20.90
2010,04,02,16,19,14.50
2010,04,02,16,20,14.50
2010,04,02,16,21,14.50
2010,04,02,16,22,11.30
2010,04,02,16,23,17.70
2010,04,02,16,24,32.20
2010,04,02,16,25,19.30
2010,04,02,16,26,20.90
2010,04,02,16,27,14.50
2010,04,02,16,28,20.90
2010,04,02,16,29,27.40
2010,04,02,16,30,14.50
2010,04,02,16,31,29.00
2010,04,02,16,32,30.60
2010,04,02,16,33,22.50
2010,04,02,16,34,19.30
2010,04,02,16,35,22.50
2010,04,02,16,36,19.30
2010,04,02,16,37,11.30
2010,04,02,16,38,29.00
2010,04,02,16,39,22.50
2010,04,02,16,40,30.60
2010,04,02,16,41,29.00
2010,04,02,16,42,16.10
2010,04,02,16,43,16.10
2010,04,02,16,44,16.10
2010,04,02,16,45,16.10
2010,04,02,16,46,32.20
2010,04,02,16,47,29.00
2010,04,02,16,48,17.70
2010,04,02,16,49,19.30
2010,04,02,16,50,20.90
2010,04,02,16,51,25.70
2010,04,02,16,52,25.70
2010,04,02,16,53,43.50
2010,04,02,16,54,38.60
2010,04,02,16,55,29.00
2010,04,02,16,56,24.20
2010,04,02,16,57,24.20
2010,04,02,16,58,32.20
2010,04,02,16,59,22.50
2010,04,02,17,00,24.20
2010,04,02,17,01,24.20
2010,04,02,17,02,35.40
2010,04,02,17,03,20.90
2010,04,02,17,04,20.90
2010,04,02,17,05,37.00
2010,04,02,17,06,43.50
2010,04,02,17,07,35.40
2010,04,02,17,08,32.20
2010,04,02,17,09,30.60
2010,04,02,17,10,32.20
2010,04,02,17,11,38.60
2010,04,02,17,12,35.40
2010,04,02,17,13,20.90
2010,04,02,17,14,30.60
2010,04,02,17,15,25.70
2010,04,02,17,16,20.90
2010,04,02,17,17,25.70
2010,04,02,17,18,30.60
2010,04,02,17,19,19.30
2010,04,02,17,20,24.20
2010,04,02,17,21,19.30
2010,04,02,17,22,22.50
2010,04,02,17,23,35.40
2010,04,02,17,24,24.20
2010,04,02,17,25,25.70
2010,04,02,17,26,22.50
2010,04,02,17,27,29.00
2010,04,02,17,28,17.70
2010,04,02,17,29,16.10
2010,04,02,17,30,29.00